www.pogodaiklimat.ru
ПОГОДА в Маунтин-Вью
Время
и дата
00:35 23.05
00:55 23.05
01:15 23.05
01:35 23.05
01:55 23.05
02:15 23.05
02:30 23.05
02:55 23.05
03:15 23.05
03:30 23.05
03:55 23.05
04:10 23.05
04:35 23.05
04:55 23.05
05:15 23.05
05:35 23.05
05:55 23.05
06:15 23.05
06:30 23.05
06:55 23.05
07:15 23.05
07:35 23.05
07:50 23.05
08:15 23.05
08:35 23.05
08:55 23.05
09:15 23.05
09:35 23.05
09:55 23.05
10:15 23.05
10:35 23.05
10:55 23.05
11:15 23.05
11:35 23.05
11:55 23.05
12:15 23.05
12:35 23.05
12:55 23.05
13:15 23.05
13:35 23.05
13:55 23.05
14:15 23.05
14:35 23.05
14:55 23.05
15:15 23.05
15:35 23.05
15:55 23.05
16:15 23.05
Ветер
(напр.,м/с)
Видим. Явления Облачность Т
(С)
Тd
(С)
f
(%)
Тe
(С)
Тes
(С)
Комфортность P
(гПа)
Po
(гПа)
Тmin
(С)
Tmax
(С)
R
(мм)
R24
(мм)
S
(см)
СВ 1 13 км ясно +13.0 +9.0 77 +12 +12 1014.9
штиль 0 13 км н/о +12.0 +9.0 82 +11 +11 1014.6
штиль 0 13 км н/о +13.0 +9.0 77 +13 +13 1014.6
штиль 0 13 км н/о +12.0 +9.0 82 +11 +11 1014.6
СВ 1 14 км н/о +12.0 +9.0 82 +11 +11 1014.6
штиль 0 13 км н/о +13.0 +9.0 77 +13 +13 1014.6
СВ 1 13 км н/о +13.0 +9.0 77 +12 +12 1014.6
СВ 1 13 км н/о +13.0 +9.0 77 +12 +12 1014.6
штиль 0 13 км н/о +12.0 +9.0 82 +11 +11 1014.6
штиль 0 13 км н/о +13.0 +9.0 77 +13 +13 1014.9
штиль 0 13 км н/о +13.0 +9.0 77 +13 +13 1014.9
штиль 0 13 км н/о +12.0 +9.0 82 +11 +11 1014.6
штиль 0 13 км н/о +12.0 +9.0 82 +11 +11 1014.6
штиль 0 11 км н/о +12.0 +9.0 82 +11 +11 1014.6
штиль 0 10 км мгла н/о +13.0 +9.0 77 +13 +13 1014.9
штиль 0 11 км ясно +13.0 +9.0 77 +13 +13 1014.6
штиль 0 11 км ясно +14.0 +10.0 77 +14 +14 1014.6
штиль 0 11 км ясно +14.0 +10.0 77 +14 +15 1014.9
штиль 0 10 км мгла ясно +15.0 +10.0 72 +15 +16 1014.9
штиль 0 10 км мгла ясно +15.0 +10.0 72 +15 +16 1014.9
С 1 11 км ясно +15.0 +10.0 72 +15 +18 1014.9
С 1 11 км ясно +16.0 +10.0 68 +16 +19 1014.9
С 1 11 км ясно +16.0 +10.0 68 +16 +18 1014.9
С 1 11 км ясно +17.0 +10.0 63 +17 +24 1014.9
штиль 0 13 км ясно +17.0 +11.0 68 +17 +27 1014.6
нст 1 13 км ясно +19.0 +11.0 60 +20 +26 1014.6
С 2 13 км ясно +19.0 +11.0 60 +20 +28 1014.6
С 1 16 км ясно +20.0 +8.0 46 +21 +31 комфорт 1014.3
С 1 16 км ясно +21.0 +6.0 38 +22 +32 комфорт 1013.9
СЗ 1 16 км ясно +21.0 +4.0 33 +22 +35 комфорт 1013.9
С 1 16 км ясно +22.0 +5.0 33 +22 +36 комфорт 1013.6
С 2 16 км ясно +23.0 +6.0 33 +23 +34 комфорт 1013.6
С 2 16 км ясно +22.0 +7.0 38 +23 +36 комфорт 1013.6
С 2 16 км ясно +22.0 +8.0 41 +23 +33 комфорт 1013.2
С 2 16 км ясно +22.0 +10.0 46 +24 +34 комфорт 1012.9
С 2 16 км ясно +23.0 +9.0 41 +24 +35 комфорт 1012.9
С 3 16 км ясно +23.0 +9.0 41 +24 +33 комфорт 1012.6
С 3 16 км ясно +23.0 +10.0 44 +25 +33 комфорт 1012.6
С 3 16 км ясно +23.0 +10.0 44 +25 +30 комфорт 1012.6
С 3 14 км ясно +23.0 +11.0 47 +25 +33 комфорт 1012.2
С 3 16 км ясно +23.0 +12.0 50 +26 +31 жарко 1011.9
С 3 16 км ясно +23.0 +12.0 50 +26 +32 жарко 1011.6
С 3 16 км ясно +23.0 +12.0 50 +26 +32 жарко 1011.6
С 3 16 км ясно +23.0 +13.0 53 +26 +33 жарко 1011.2
С 3 16 км ясно +23.0 +13.0 53 +26 +30 жарко 1010.9
С 3 16 км ясно +23.0 +12.0 50 +26 +29 жарко 1010.9
С 3 14 км ясно +22.0 +12.0 53 +24 +29 комфорт 1010.5
С 3 14 км ясно +22.0 +12.0 53 +24 +27 комфорт 1010.5
Местоположение метеостанции Mountain View Moffett Field: широта 37.4058 долгота -122.0481 высота над уровнем моря 10 м.
В архиве по умолчанию представлена погода в Маунтин-Вью за последние 1-2 суток. Обновление информации о фактической погоде в базе происходит ежечасно! Архивные данные за месяц целиком и за предыдущие месяцы Вы можете получить, выбрав интересующий диапазон дат из раскрывающегося списка и нажав кнопку "Ввод!".
Внимание! Архив погоды МЕТАР в базе сайта по станциям, не включенным в климатический монитор, хранится не более 60 дней. Нет смысла пытаться выбрать более раннюю дату.
*Определитесь, кто Вы:
Внимание! Время в таблицах - местное (без учета летнего времени). Для получения всемирного времени необходимо вычесть поправку, которая равна -8 ч.
Смотрите также архив погоды в соседних городах и на ближайших метеорологических станциях:
Партнеры нашего сайта:      
Пояснения к столбцам:
  • Ветер - указаны скорость ветра в м/с - средняя за 10 мин, порывы в срок и между сроками (в фигурных скобках) и направление, откуда дует ветер: С - северный,
  • СВ - северо-восточный, В - восточный, ЮВ - юго-восточный, Ю - южный, ЮЗ - юго-западный, З - западный, СЗ - северо-западный.
  • Видимость - горизонтальная дальность видимости в метрах или километрах. При видимости от 1 до 10 км при отсутствии осадков обычно наблюдается дымка, при ухудшении видимости до 1 км и менее - туман. В сухую погоду видимость может ухудшаться дымом, пылью или мглою.
  • Явления - указаны атмосферные явления, наблюдавшиеся в срок или в последний час перед сроком; фигурными скобками обозначены явления, наблюдавшиеся между сроками (за 1-3 часа до срока); квадратными скобками обозначены град или гололедные отложения с указанием их диаметра в мм.
  • Облачность - указаны через наклонную черту общая и нижняя облачность в баллах и высота нижней границы облаков в метрах; квадратными скобками обозначены формы облаков: Ci - перистые, Cs - перисто-слоистые, Cc - перисто-кучевые, Ac - высококучевые, As - высокослоистые, Sc - слоисто-кучевые, Ns - слоисто-дождевые, Cu - кучевые, Cb - кучево-дождевые. Подробнее классификацию облаков см. в Атласе облаков (PDF).
  • T - Температура воздуха - температура, измеренная на высоте 2 м над землей.
  • Td - Температура точки росы - температура, при понижении до которой содержащийся в воздухе водяной пар достигнет насыщения.
  • f - Относительная влажность воздуха - влажноcть воздуха, измеренная на высоте 2 м над землей.
  • Te - Эффективная температура - температура, которую ощущает одетый по сезону человек в тени. Характеристика душности погоды. При расчете учитывается влияние влажности воздуха и скорости ветра на теплоощущения человека.
  • Tes - Эффективная температура на солнце - температура, которую ощущает человек, с поправкой на солнечный нагрев. Характеристика знойности погоды. Зависит от высоты солнца над горизонтом, облачности и скорости ветра. Ночью, в пасмурную погоду, а также при ветре 12 м/с и более поправка равна нулю.
  • P - Атмосферное давление - приведенное к уровню моря атмосферное давление.
  • Po - Атмосферное давление - измеренное на уровне метеостанции атмосферное давление.
  • Tmin - Минимальная температура - минимум температуры воздуха на высоте 2 м над землей.
  • Tmax - Максимальная температура - максимум температуры воздуха на высоте 2 м над землей.
  • R - Количество осадков - Количество выпавших осадков за период времени, мм. При наведении курсора мыши на число - период времени, за который выпало указанное количество осадков.
  • R24 - Количество осадков - Количество выпавших осадков за 24 часа, мм.
  • S - Снежный покров - Высота снежного покрова, см. При наведении курсора мыши на число - состояние снежного покрова и степень покрытия местности в баллах.